This demonstration page uses our WeatherBlox Daily Observations layout. Learn more.

Hourly Observations for June 15, 2015

Temp ( °F °C ) Dew Point ( °F °C ) Humidity (%) Winds ( mph kmh ) Pressure ( in mb ) Visibility ( mi km ) Precip ( " mm )
12:15 am 00:15 Cloudy 64 18 63 17 94 94 WNW 5 7 29.91 1013 10 16.09344 0 0
12:35 am 00:35 Partly Cloudy 64 18 63 17 94 94 WNW 7 11 29.91 1013 10 16.09344 0 0
12:55 am 00:55 Clear 64 18 63 17 94 94 NW 5 7 29.91 1013 10 16.09344 0 0
1:15 am 01:15 Partly Cloudy 64 18 61 16 88 88 WNW 6 9 29.91 1013 10 16.09344 0 0
1:35 am 01:35 Mostly Cloudy 64 18 61 16 88 88 NNW 7 11 29.94 1014 10 16.09344 0 0
1:55 am 01:55 Mostly Cloudy 64 18 61 16 88 88 NNW 12 19 29.94 1014 10 16.09344 0 0
2:15 am 02:15 Mostly Cloudy 64 18 61 16 88 88 NNW 9 15 29.94 1014 10 16.09344 0 0
2:35 am 02:35 Mostly Cloudy 64 18 59 15 83 83 NW 12 19 29.94 1014 10 16.09344 0 0
2:55 am 02:55 Cloudy with Light Rain 64 18 59 15 83 83 WNW 7 11 29.91 1013 10 16.09344 0 0
3:15 am 03:15 Cloudy with Light Rain 64 18 59 15 83 83 WNW 8 13 29.91 1013 10 16.09344 0 0
3:35 am 03:35 Mostly Cloudy 64 18 59 15 83 83 WNW 7 11 29.91 1013 10 16.09344 0 0
3:55 am 03:55 Mostly Cloudy 64 18 59 15 83 83 WNW 6 9 29.91 1013 10 16.09344 0 0
4:15 am 04:15 Partly Cloudy 64 18 59 15 83 83 NW 9 15 29.91 1013 10 16.09344 0 0
4:35 am 04:35 Clear 64 18 61 16 88 88 NW 10 17 29.91 1013 10 16.09344 0 0
4:55 am 04:55 Clear 64 18 59 15 83 83 NW 9 15 29.91 1013 10 16.09344 0 0
5:15 am 05:15 Clear 64 18 59 15 83 83 NW 7 11 29.94 1014 10 16.09344 0 0
5:35 am 05:35 Clear 63 17 59 15 88 88 WNW 9 15 29.94 1014 10 16.09344 0 0
5:55 am 05:55 Clear 63 17 59 15 88 88 NW 6 9 29.94 1014 10 16.09344 0 0
6:15 am 06:15 Sunny 63 17 61 16 94 94 WNW 8 13 29.97 1015 10 16.09344 0 0
6:35 am 06:35 Partly Cloudy 63 17 61 16 94 94 NNW 7 11 29.97 1015 10 16.09344 0 0
6:55 am 06:55 Partly Cloudy 63 17 61 16 94 94 NNW 7 11 29.97 1015 10 16.09344 0 0
7:15 am 07:15 Mostly Cloudy 64 18 61 16 88 88 N 7 11 29.97 1015 10 16.09344 0 0
7:35 am 07:35 Mostly Cloudy 64 18 61 16 88 88 N 10 17 30 1016 10 16.09344 0 0
7:55 am 07:55 Mostly Cloudy 64 18 61 16 88 88 N 9 15 30 1016 10 16.09344 0 0
8:15 am 08:15 Cloudy 64 18 61 16 88 88 N 13 20 30 1016 10 16.09344 0 0
8:35 am 08:35 Cloudy 64 18 61 16 88 88 N 14 22 30 1016 10 16.09344 0 0
8:55 am 08:55 Cloudy 66 19 63 17 88 88 NNE 15 24 30 1016 10 16.09344 0 0
9:15 am 09:15 Cloudy 68 20 63 17 83 83 N 15 24 30.03 1017 10 16.09344 0 0
9:35 am 09:35 Cloudy 68 20 63 17 83 83 N 16 26 30.03 1017 10 16.09344 0.01 0.254
9:55 am 09:55 Mostly Cloudy 68 20 63 17 83 83 NNE 15 24 30.03 1017 10 16.09344 0.01 0.254
10:15 am 10:15 Mostly Cloudy with Light Rain 66 19 63 17 88 88 NNE 15 24 30.03 1017 10 16.09344 0 0
10:35 am 10:35 Cloudy 66 19 61 16 83 83 NE 15 24 30.03 1017 10 16.09344 0 0
10:55 am 10:55 Cloudy 66 19 61 16 83 83 N 15 24 30.03 1017 10 16.09344 0 0
11:15 am 11:15 Cloudy 66 19 61 16 83 83 N 14 22 30.03 1017 10 16.09344 0 0
11:35 am 11:35 Cloudy 68 20 63 17 83 83 N 15 24 30.03 1017 10 16.09344 0 0
11:55 am 11:55 Cloudy with Thunderstorms 70 21 63 17 78 78 N 13 20 30 1016 10 16.09344 0 0
12:15 pm 12:15 Mostly Cloudy 70 21 63 17 78 78 N 13 20 30 1016 N/A 0.03 0.762
12:35 pm 12:35 Mostly Cloudy 70 21 63 17 78 78 N 16 26 30 1016 10 16.09344 0.03 0.762
12:55 pm 12:55 Mostly Cloudy 72 22 63 17 73 73 N 13 20 30 1016 10 16.09344 0.03 0.762
1:15 pm 13:15 Mostly Cloudy 72 22 63 17 73 73 N 14 22 30 1016 10 16.09344 0 0
1:35 pm 13:35 Mostly Cloudy 72 22 63 17 73 73 N 14 22 30 1016 10 16.09344 0 0
1:55 pm 13:55 Partly Cloudy 73 23 63 17 69 69 N 14 22 30 1016 10 16.09344 0 0
2:15 pm 14:15 Partly Cloudy 73 23 61 16 65 65 N 9 15 30 1016 10 16.09344 0 0
2:35 pm 14:35 Partly Cloudy 73 23 61 16 65 65 N 13 20 30 1016 10 16.09344 0 0
2:55 pm 14:55 Partly Cloudy 73 23 61 16 65 65 NNE 14 22 30 1016 10 16.09344 0 0
3:15 pm 15:15 Mostly Cloudy 73 23 61 16 65 65 NNE 9 15 30 1016 10 16.09344 0 0
3:35 pm 15:35 Mostly Cloudy 73 23 61 16 65 65 NNE 12 19 30 1016 10 16.09344 0 0
3:55 pm 15:55 Mostly Cloudy 75 24 63 17 65 65 NNE 12 19 30.03 1017 10 16.09344 0 0
4:15 pm 16:15 Mostly Cloudy 73 23 61 16 65 65 NE 12 19 30.03 1017 10 16.09344 0 0
4:35 pm 16:35 Cloudy 75 24 63 17 65 65 NNE 12 19 30.03 1017 10 16.09344 0 0
4:55 pm 16:55 Cloudy 73 23 63 17 69 69 NE 13 20 30.03 1017 10 16.09344 0 0
5:15 pm 17:15 Cloudy 73 23 61 16 65 65 NE 9 15 30.03 1017 10 16.09344 0 0
5:35 pm 17:35 Cloudy 72 22 63 17 73 73 NE 13 20 30.03 1017 10 16.09344 0 0
5:55 pm 17:55 Mostly Cloudy 73 23 63 17 69 69 NE 10 17 30 1016 10 16.09344 0 0
6:15 pm 18:15 Mostly Cloudy 73 23 63 17 69 69 NE 15 24 30 1016 10 16.09344 0 0
6:35 pm 18:35 Mostly Cloudy 72 22 61 16 69 69 NE 12 19 30.03 1017 10 16.09344 0 0
6:55 pm 18:55 Mostly Cloudy 72 22 63 17 73 73 ENE 10 17 30.03 1017 10 16.09344 0 0
7:15 pm 19:15 Mostly Cloudy 72 22 63 17 73 73 NE 13 20 30.03 1017 10 16.09344 0 0
7:35 pm 19:35 Mostly Cloudy 72 22 61 16 69 69 NE 12 19 30.03 1017 10 16.09344 0 0
7:55 pm 19:55 Partly Cloudy 72 22 61 16 69 69 NE 12 19 30.03 1017 10 16.09344 0 0
8:15 pm 20:15 Partly Cloudy 70 21 63 17 78 78 E 9 15 30.03 1017 10 16.09344 0 0
8:35 pm 20:35 Partly Cloudy 68 20 61 16 78 78 ENE 7 11 30.06 1018 10 16.09344 0 0
8:55 pm 20:55 Partly Cloudy 68 20 63 17 83 83 ENE 8 13 30.06 1018 10 16.09344 0 0
9:15 pm 21:15 Partly Cloudy 66 19 61 16 83 83 ENE 7 11 30.06 1018 10 16.09344 0 0
9:35 pm 21:35 Clear 64 18 61 16 88 88 ENE 6 9 30.06 1018 10 16.09344 0 0
9:55 pm 21:55 Clear 64 18 59 15 83 83 ENE 5 7 30.09 1019 10 16.09344 0 0
10:15 pm 22:15 Clear 63 17 59 15 88 88 ENE 5 7 30.12 1020 10 16.09344 0 0
10:35 pm 22:35 Clear 63 17 59 15 88 88 NE 3 6 30.12 1020 10 16.09344 0 0
10:55 pm 22:55 Clear 61 16 57 14 88 88 ENE 6 9 30.15 1021 10 16.09344 0 0
11:15 pm 23:15 Clear 61 16 57 14 88 88 ENE 6 9 30.15 1021 10 16.09344 0 0
11:35 pm 23:35 Clear 61 16 57 14 88 88 ENE 7 11 30.15 1021 10 16.09344 0 0
11:55 pm 23:55 Clear 61 16 57 14 88 88 ENE 6 9 30.15 1021 10 16.09344 0 0

Powered by AerisWeather